Location: Dehesa de la Cepeda
(40.6574°N, 4.3013°W)
Time: 18:55:25
(UTC+00:00)

Explorer 7 - Pass Details

Date: 08 August 2021
Orbit: 484 x 676 km, 50.3° (Epoch: 17 September)

Event Time Altitude Azimuth Distance (km) Brightness Sun altitude
Exits shadow 04:04:46 11° 286° (WNW) 1,593 8.8 -13.5°
Maximum altitude 04:07:46 26° 343° (NNW) 986 8.3 -13.0°
Drops below altitude 10° 04:11:04 10° 42° (NE) 1,707 10.7 -12.5°
Sets 04:13:33 0° 55° (NE) 2,619 12.5 -12.1°
